ITY001 LIML-LIBP

Flight info

Callsign ITY001
Flight time 0h 54m
Altitude 35000
Route LOGDI DCT RIPDU DCT LURUT DCT SORUG DCT LAPVO/N0356F190 Y579 INKIM
Aircraft A319/M-SDE3FGHIRWY/LB1

Departure

Time 2026-04-16 14:51
Airport Milano Linate Airport (LIML)

Arrival

Time 2026-04-16 15:45
Airport Abruzzo Airport (LIBP)
Time Latitude Longitude Altitude Speed Heading
2026-04-16 14:27 45.45382 9.28067 362 ft 0 kts 270°
2026-04-16 14:43 45.45382 9.28045 363 ft 5 kts 270°
2026-04-16 14:43 45.45363 9.27967 365 ft 13 kts 224°
2026-04-16 14:43 45.45260 9.27892 366 ft 19 kts 201°
2026-04-16 14:43 45.45127 9.27876 360 ft 20 kts 176°
2026-04-16 14:44 45.44988 9.27891 359 ft 20 kts 172°
2026-04-16 14:44 45.44850 9.27939 362 ft 21 kts 167°
2026-04-16 14:44 45.44705 9.27956 359 ft 22 kts 176°
2026-04-16 14:44 45.44526 9.27974 357 ft 30 kts 176°
2026-04-16 14:45 45.44290 9.28000 354 ft 37 kts 175°
2026-04-16 14:45 45.44023 9.28031 354 ft 40 kts 175°
2026-04-16 14:45 45.43729 9.28064 353 ft 42 kts 176°
2026-04-16 14:45 45.43547 9.28082 349 ft 15 kts 176°
2026-04-16 14:46 45.43452 9.28032 348 ft 16 kts 244°
2026-04-16 14:46 45.43446 9.27975 351 ft 0 kts 265°
2026-04-16 14:49 45.43445 9.27960 349 ft 2 kts 265°
2026-04-16 14:49 45.43443 9.27910 349 ft 9 kts 265°
2026-04-16 14:50 45.43472 9.27824 350 ft 10 kts 331°
2026-04-16 14:50 45.43558 9.27811 350 ft 22 kts 356°
2026-04-16 14:50 45.43992 9.27765 354 ft 98 kts 355°
2026-04-16 14:50 45.44875 9.27671 363 ft 155 kts 356°
2026-04-16 14:51 45.45979 9.27555 883 ft 157 kts 356°
2026-04-16 14:51 45.47051 9.27664 1515 ft 157 kts
2026-04-16 14:51 45.48149 9.27862 2176 ft 159 kts
2026-04-16 14:51 45.49323 9.28038 2587 ft 180 kts
2026-04-16 14:53 45.48911 9.38753 6143 ft 269 kts 123°
2026-04-16 14:53 45.47875 9.40969 6965 ft 275 kts 123°
2026-04-16 14:54 45.46796 9.43244 7838 ft 279 kts 123°
2026-04-16 14:54 45.45695 9.45551 8723 ft 284 kts 123°
2026-04-16 14:54 45.44579 9.47889 9581 ft 288 kts 123°
2026-04-16 14:54 45.43447 9.50264 10411 ft 292 kts 123°
2026-04-16 14:55 45.42288 9.52698 11015 ft 306 kts 123°
2026-04-16 14:55 45.41050 9.55301 11306 ft 328 kts 123°
2026-04-16 14:55 45.39746 9.58034 11910 ft 338 kts 123°
2026-04-16 14:55 45.38369 9.60773 12638 ft 344 kts 129°
2026-04-16 14:56 45.36649 9.63168 13378 ft 349 kts 141°
2026-04-16 14:56 45.34617 9.65093 14096 ft 354 kts 148°
2026-04-16 14:56 45.32503 9.66934 14743 ft 358 kts 148°
2026-04-16 14:56 45.30367 9.68793 15383 ft 363 kts 148°
2026-04-16 14:57 45.28202 9.70676 16019 ft 367 kts 148°
2026-04-16 14:57 45.26012 9.72582 16649 ft 371 kts 148°
2026-04-16 14:57 45.23795 9.74510 17274 ft 376 kts 148°
2026-04-16 14:57 45.21549 9.76458 17901 ft 380 kts 148°
2026-04-16 14:58 45.19278 9.78424 18506 ft 385 kts 148°
2026-04-16 14:58 45.14669 9.82410 19609 ft 392 kts 148°
2026-04-16 14:58 45.12339 9.84428 20186 ft 395 kts 148°
2026-04-16 14:59 45.09981 9.86471 20754 ft 398 kts 148°
2026-04-16 14:59 45.07609 9.88523 21308 ft 402 kts 148°
2026-04-16 14:59 45.05215 9.90592 21857 ft 405 kts 148°
2026-04-16 14:59 45.02796 9.92676 22402 ft 409 kts 148°
2026-04-16 15:00 45.00360 9.94774 22937 ft 412 kts 148°
2026-04-16 15:00 44.97900 9.96888 23449 ft 416 kts 148°
2026-04-16 15:00 44.95418 9.99016 23926 ft 419 kts 148°
2026-04-16 15:00 44.92922 10.01156 24364 ft 421 kts 148°
2026-04-16 15:01 44.90409 10.03310 24816 ft 423 kts 148°
2026-04-16 15:01 44.87885 10.05471 25246 ft 426 kts 148°
2026-04-16 15:01 44.85347 10.07640 25656 ft 428 kts 148°
2026-04-16 15:01 44.82792 10.09818 26065 ft 430 kts 148°
2026-04-16 15:02 44.80222 10.12007 26462 ft 433 kts 149°
2026-04-16 15:02 44.77640 10.14206 26856 ft 435 kts 149°
2026-04-16 15:02 44.75070 10.16469 27239 ft 438 kts 144°
2026-04-16 15:02 44.72730 10.19217 27615 ft 440 kts 134°
2026-04-16 15:03 44.70749 10.22494 28008 ft 441 kts 124°
2026-04-16 15:03 44.69182 10.26198 28391 ft 442 kts 114°
2026-04-16 15:03 44.67905 10.30135 28772 ft 444 kts 113°
2026-04-16 15:03 44.66622 10.34100 29144 ft 447 kts 113°
2026-04-16 15:04 44.65766 10.36733 29379 ft 449 kts 113°
2026-04-16 15:04 44.64463 10.40730 29728 ft 451 kts 114°
2026-04-16 15:04 44.63153 10.44743 30080 ft 454 kts 114°
2026-04-16 15:04 44.61999 10.48859 30386 ft 455 kts 106°
2026-04-16 15:05 44.61159 10.53149 30669 ft 457 kts 104°
2026-04-16 15:05 44.60333 10.57467 30953 ft 459 kts 104°
2026-04-16 15:05 44.59498 10.61814 31244 ft 461 kts 104°
2026-04-16 15:05 44.58656 10.66169 31541 ft 463 kts 104°
2026-04-16 15:06 44.57809 10.70530 31881 ft 463 kts 104°
2026-04-16 15:06 44.56961 10.74879 32274 ft 462 kts 104°
2026-04-16 15:06 44.56114 10.79220 32654 ft 462 kts 104°
2026-04-16 15:06 44.55265 10.83563 33024 ft 462 kts 105°
2026-04-16 15:07 44.54413 10.87897 33397 ft 461 kts 105°
2026-04-16 15:07 44.53561 10.92234 33773 ft 461 kts 105°
2026-04-16 15:07 44.52669 10.96546 34145 ft 461 kts 109°
2026-04-16 15:07 44.51424 11.00612 34461 ft 460 kts 118°
2026-04-16 15:08 44.49848 11.04510 34782 ft 459 kts 120°
2026-04-16 15:08 44.48256 11.08387 35065 ft 459 kts 120°
2026-04-16 15:08 44.46643 11.12305 35145 ft 455 kts 120°
2026-04-16 15:09 44.43545 11.19837 35149 ft 446 kts 120°
2026-04-16 15:09 44.40526 11.27403 35117 ft 445 kts 119°
2026-04-16 15:10 44.37552 11.35053 35122 ft 443 kts 118°
2026-04-16 15:10 44.34619 11.42558 35131 ft 443 kts 119°
2026-04-16 15:11 44.31633 11.50082 35137 ft 443 kts 119°
2026-04-16 15:11 44.28642 11.57586 35151 ft 442 kts 119°
2026-04-16 15:12 44.25646 11.65093 35150 ft 442 kts 119°
2026-04-16 15:12 44.22651 11.72596 35152 ft 442 kts 119°
2026-04-16 15:13 44.19663 11.80081 35150 ft 442 kts 119°
2026-04-16 15:13 44.16664 11.87541 35146 ft 441 kts 119°
2026-04-16 15:14 44.13654 11.94989 35145 ft 441 kts 119°
2026-04-16 15:14 44.10648 12.02438 35138 ft 441 kts 119°
2026-04-16 15:15 44.07643 12.09870 35145 ft 441 kts 119°
2026-04-16 15:15 44.04634 12.17283 35151 ft 440 kts 119°
2026-04-16 15:16 44.01621 12.24684 35150 ft 440 kts 119°
2026-04-16 15:16 43.98607 12.32072 35150 ft 440 kts 119°
2026-04-16 15:17 43.95588 12.39453 35145 ft 439 kts 119°
2026-04-16 15:17 43.92564 12.46817 35150 ft 439 kts 118°
2026-04-16 15:18 43.89546 12.54161 35151 ft 438 kts 118°
2026-04-16 15:18 43.86530 12.61484 35154 ft 437 kts 118°
2026-04-16 15:19 43.83513 12.68791 35145 ft 437 kts 118°
2026-04-16 15:19 43.80490 12.76095 34852 ft 437 kts 118°
2026-04-16 15:19 43.78982 12.79733 34612 ft 435 kts 118°
2026-04-16 15:20 43.77478 12.83346 34366 ft 432 kts 118°
2026-04-16 15:20 43.75979 12.86933 33928 ft 429 kts 118°
2026-04-16 15:20 43.74486 12.90505 33411 ft 428 kts 118°
2026-04-16 15:20 43.73020 12.94013 32906 ft 426 kts 118°
2026-04-16 15:21 43.71523 12.97599 32389 ft 424 kts 118°
2026-04-16 15:21 43.70070 13.01082 31911 ft 423 kts 118°
2026-04-16 15:21 43.68606 13.04590 31416 ft 421 kts 118°
2026-04-16 15:21 43.67143 13.08088 30934 ft 420 kts 118°
2026-04-16 15:22 43.65681 13.11575 30447 ft 419 kts 117°
2026-04-16 15:22 43.64225 13.15046 29943 ft 417 kts 117°
2026-04-16 15:22 43.62773 13.18491 29459 ft 414 kts 117°
2026-04-16 15:22 43.61330 13.21903 29004 ft 410 kts 117°
2026-04-16 15:23 43.59896 13.25295 28548 ft 407 kts 118°
2026-04-16 15:23 43.58477 13.28652 28124 ft 404 kts 118°
2026-04-16 15:23 43.57071 13.31985 27689 ft 401 kts 118°
2026-04-16 15:23 43.55672 13.35300 27247 ft 399 kts 118°
2026-04-16 15:24 43.54281 13.38593 26811 ft 397 kts 118°
2026-04-16 15:24 43.52890 13.41878 26363 ft 396 kts 119°
2026-04-16 15:24 43.51498 13.45153 25917 ft 396 kts 119°
2026-04-16 15:24 43.50105 13.48418 25463 ft 396 kts 120°
2026-04-16 15:25 43.48711 13.51683 24992 ft 396 kts 119°
2026-04-16 15:25 43.47317 13.54955 24550 ft 395 kts 120°
2026-04-16 15:25 43.45923 13.58228 24043 ft 397 kts 120°
2026-04-16 15:25 43.44534 13.61488 23766 ft 391 kts 121°
2026-04-16 15:26 43.43158 13.64715 23228 ft 392 kts 121°
2026-04-16 15:26 43.41779 13.67939 22748 ft 390 kts 121°
2026-04-16 15:26 43.40407 13.71138 22335 ft 387 kts 121°
2026-04-16 15:26 43.39044 13.74312 21913 ft 384 kts 121°
2026-04-16 15:27 43.37694 13.77447 21492 ft 378 kts 121°
2026-04-16 15:27 43.36358 13.80542 20885 ft 376 kts 121°
2026-04-16 15:27 43.35032 13.83614 20296 ft 371 kts 121°
2026-04-16 15:27 43.33465 13.86371 19761 ft 362 kts 135°
2026-04-16 15:28 43.31524 13.88480 19324 ft 350 kts 149°
2026-04-16 15:28 43.29369 13.89914 18912 ft 340 kts 157°
2026-04-16 15:28 43.27218 13.91171 18514 ft 334 kts 156°
2026-04-16 15:28 43.25092 13.92414 18050 ft 329 kts 156°
2026-04-16 15:29 43.23008 13.93632 17650 ft 323 kts 156°
2026-04-16 15:29 43.20958 13.94831 17275 ft 318 kts 156°
2026-04-16 15:29 43.18942 13.96010 16901 ft 312 kts 156°
2026-04-16 15:29 43.16958 13.97168 16535 ft 307 kts 156°
2026-04-16 15:30 43.15006 13.98303 16173 ft 303 kts 155°
2026-04-16 15:30 43.13067 13.99427 15819 ft 302 kts 155°
2026-04-16 15:30 43.11155 14.00537 15469 ft 303 kts 155°
2026-04-16 15:30 43.09213 14.01666 15109 ft 303 kts 155°
2026-04-16 15:31 43.07268 14.02798 14752 ft 304 kts 155°
2026-04-16 15:31 43.05323 14.03930 14399 ft 304 kts 155°
2026-04-16 15:31 43.03373 14.05067 14041 ft 305 kts 155°
2026-04-16 15:31 43.01420 14.06208 13653 ft 306 kts 155°
2026-04-16 15:32 42.99466 14.07346 13276 ft 305 kts 155°
2026-04-16 15:32 42.97517 14.08475 12912 ft 304 kts 155°
2026-04-16 15:32 42.95574 14.09601 12552 ft 303 kts 155°
2026-04-16 15:32 42.93635 14.10722 12178 ft 302 kts 155°
2026-04-16 15:33 42.91703 14.11835 11805 ft 301 kts 155°
2026-04-16 15:33 42.89776 14.12947 11427 ft 300 kts 155°
2026-04-16 15:33 42.87854 14.14056 11049 ft 300 kts 155°
2026-04-16 15:33 42.85939 14.15165 10658 ft 299 kts 154°
2026-04-16 15:34 42.84162 14.16583 10290 ft 295 kts 140°
2026-04-16 15:34 42.82730 14.18552 9897 ft 291 kts 125°
2026-04-16 15:34 42.81651 14.20870 9539 ft 288 kts 119°
2026-04-16 15:34 42.80641 14.23147 9455 ft 275 kts 119°
2026-04-16 15:35 42.79669 14.25325 9353 ft 263 kts 118°
2026-04-16 15:35 42.78734 14.27412 9241 ft 253 kts 119°
2026-04-16 15:35 42.77838 14.29411 9134 ft 242 kts 118°
2026-04-16 15:35 42.77012 14.31345 9027 ft 231 kts 112°
2026-04-16 15:36 42.76501 14.33372 8773 ft 226 kts 103°
2026-04-16 15:36 42.76089 14.35393 8496 ft 220 kts 103°
2026-04-16 15:36 42.75683 14.37388 8139 ft 217 kts 102°
2026-04-16 15:36 42.75270 14.39344 7836 ft 214 kts 106°
2026-04-16 15:37 42.74531 14.41087 7551 ft 213 kts 128°
2026-04-16 15:37 42.73387 14.42358 7252 ft 214 kts 149°
2026-04-16 15:37 42.72025 14.43152 6959 ft 212 kts 156°
2026-04-16 15:37 42.70664 14.43899 6659 ft 211 kts 157°
2026-04-16 15:38 42.69228 14.44249 6344 ft 211 kts 180°
2026-04-16 15:38 42.67796 14.43867 5957 ft 212 kts 202°
2026-04-16 15:38 42.66557 14.42821 5659 ft 208 kts 220°
2026-04-16 15:38 42.65422 14.41615 5371 ft 206 kts 219°
2026-04-16 15:39 42.64297 14.40435 5092 ft 203 kts 219°
2026-04-16 15:39 42.63181 14.39267 4813 ft 201 kts 219°
2026-04-16 15:39 42.62077 14.38112 4530 ft 199 kts 220°
2026-04-16 15:39 42.60986 14.36969 4261 ft 197 kts 220°
2026-04-16 15:40 42.59930 14.35804 3980 ft 195 kts 221°
2026-04-16 15:40 42.58889 14.34685 3729 ft 192 kts 221°
2026-04-16 15:40 42.57839 14.33582 3473 ft 190 kts 220°
2026-04-16 15:40 42.56800 14.32497 3224 ft 187 kts 220°
2026-04-16 15:41 42.55788 14.31444 2970 ft 179 kts 221°
2026-04-16 15:41 42.54853 14.30473 2755 ft 160 kts 221°
2026-04-16 15:41 42.54006 14.29593 2542 ft 148 kts 222°
2026-04-16 15:41 42.53205 14.28759 2353 ft 144 kts 223°
2026-04-16 15:42 42.52414 14.27935 2165 ft 143 kts 223°
2026-04-16 15:42 42.51623 14.27112 1988 ft 143 kts 222°
2026-04-16 15:42 42.50839 14.26298 1795 ft 141 kts 223°
2026-04-16 15:42 42.50064 14.25493 1601 ft 140 kts 223°
2026-04-16 15:43 42.49291 14.24691 1417 ft 140 kts 222°
2026-04-16 15:43 42.48519 14.23889 1222 ft 140 kts 223°
2026-04-16 15:43 42.47747 14.23088 1039 ft 139 kts 221°
2026-04-16 15:43 42.46981 14.22294 847 ft 139 kts 220°
2026-04-16 15:44 42.46206 14.21489 667 ft 142 kts 217°
2026-04-16 15:44 42.45420 14.20676 462 ft 141 kts 217°
2026-04-16 15:44 42.44644 14.19873 264 ft 141 kts 216°
2026-04-16 15:44 42.43871 14.19068 83 ft 141 kts 217°
2026-04-16 15:45 42.43166 14.18334 47 ft 101 kts 216°
2026-04-16 15:45 42.42825 14.17990 51 ft 29 kts 217°
2026-04-16 15:45 42.42661 14.17907 54 ft 13 kts 189°
2026-04-16 15:45 42.42615 14.17898 53 ft 0 kts 183°
2026-04-16 15:46 42.42613 14.17898 53 ft 2 kts 182°
2026-04-16 15:47 42.42574 14.17918 53 ft 11 kts 134°
2026-04-16 15:47 42.42593 14.18033 52 ft 17 kts 39°
2026-04-16 15:47 42.42709 14.18154 49 ft 26 kts 38°
2026-04-16 15:47 42.42867 14.18314 49 ft 25 kts 36°
2026-04-16 15:48 42.42969 14.18420 48 ft 16 kts 38°
2026-04-16 15:48 42.43020 14.18550 47 ft 17 kts 86°
2026-04-16 15:48 42.43032 14.18622 46 ft 7 kts 77°
2026-04-16 15:48 42.43014 14.18674 47 ft 2 kts 129°
2026-04-16 15:49 42.43002 14.18695 47 ft 0 kts 128°
2026-04-16 15:49 42.43000 14.18699 47 ft 1 kts 128°
2026-04-16 15:49 42.42997 14.18704 47 ft 0 kts 126°
2026-04-16 15:49 42.42996 14.18706 47 ft 0 kts 126°